When you browse on this site, cookies collect data to enhance your experience and personalize the content and advertising you see.
Visit our Privacy Policy to learn more. By continuing to use the site, you agree to this use of cookies and data.
  • In Hungary
  • List of Countries
  • For 7 days
  • Water Temperature
  • Satellite Maps
  • Weather Map
  • News
  • Weather Widgets
  • user-avatar
    Login

    Hourly Weather Enev

    Today, 19 April, Friday

    Time Temperature Precipitation Wind Pressure Humidity
    00:00 +21°C° 0.2 mm 2 mps 739 mmHg 47%
    01:00 +20°C° 0.2 mm 2 mps 739 mmHg 48%
    02:00 +19°C° 0 mm 2 mps 739 mmHg 50%
    03:00 +18°C° 0 mm 2 mps 738 mmHg 52%
    04:00 +17°C° 0 mm 2 mps 738 mmHg 55%
    05:00 +17°C° 0 mm 2 mps 739 mmHg 54%
    06:00 +17°C° 0 mm 2 mps 739 mmHg 54%
    07:00 +17°C° 0 mm 2 mps 739 mmHg 54%
    08:00 +18°C° 0 mm 3 mps 739 mmHg 52%
    09:00 +19°C° 0 mm 3 mps 738 mmHg 49%
    10:00 +19°C° 0 mm 3 mps 738 mmHg 49%
    11:00 +19°C° 0.1 mm 4 mps 738 mmHg 48%
    12:00 +20°C° 0.1 mm 4 mps 737 mmHg 47%
    13:00 +21°C° 0.1 mm 4 mps 737 mmHg 46%
    14:00 +19°C° 0.8 mm 4 mps 737 mmHg 53%
    15:00 +17°C° 0.8 mm 5 mps 737 mmHg 60%
    16:00 +15°C° 0.8 mm 5 mps 737 mmHg 67%
    17:00 +17°C° 0.2 mm 4 mps 737 mmHg 69%
    18:00 +17°C° 0.2 mm 3 mps 737 mmHg 70%
    19:00 +17°C° 0.2 mm 2 mps 738 mmHg 71%
    20:00 +16°C° 0 mm 2 mps 738 mmHg 75%
    21:00 +15°C° 0 mm 2 mps 738 mmHg 78%
    22:00 +15°C° 0 mm 2 mps 738 mmHg 81%
    23:00 +15°C° 0 mm 1 mps 738 mmHg 82%

    Tomorrow, 20 April, Saturday

    Time Temperature Precipitation Wind Pressure Humidity
    00:00 +15°C° 0 mm 1 mps 737 mmHg 82%
    01:00 +15°C° 0 mm 1 mps 737 mmHg 83%
    02:00 +14°C° 0 mm 1 mps 737 mmHg 85%
    03:00 +14°C° 0 mm 1 mps 737 mmHg 86%
    04:00 +14°C° 0 mm 1 mps 737 mmHg 87%
    05:00 +14°C° 0 mm 2 mps 737 mmHg 88%
    06:00 +14°C° 0 mm 2 mps 737 mmHg 89%
    07:00 +14°C° 0 mm 2 mps 737 mmHg 89%
    08:00 +15°C° 0 mm 2 mps 737 mmHg 88%
    09:00 +14°C° 0 mm 3 mps 737 mmHg 86%
    10:00 +14°C° 0 mm 3 mps 737 mmHg 84%
    11:00 +16°C° 0 mm 3 mps 736 mmHg 79%
    12:00 +17°C° 0 mm 3 mps 736 mmHg 75%
    13:00 +18°C° 0 mm 3 mps 736 mmHg 70%
    14:00 +18°C° 0 mm 3 mps 736 mmHg 70%
    15:00 +17°C° 0 mm 4 mps 735 mmHg 70%
    16:00 +17°C° 0 mm 4 mps 735 mmHg 69%
    17:00 +15°C° 1.5 mm 4 mps 736 mmHg 72%
    18:00 +15°C° 1.5 mm 4 mps 736 mmHg 74%
    19:00 +14°C° 1.5 mm 4 mps 737 mmHg 76%
    20:00 +14°C° 1.8 mm 4 mps 738 mmHg 78%
    21:00 +13°C° 1.8 mm 3 mps 738 mmHg 80%
    22:00 +13°C° 1.8 mm 3 mps 739 mmHg 82%
    23:00 +14°C° 1.4 mm 2 mps 739 mmHg 83%

    Day after tomorrow, 21 April, Sunday

    Time Temperature Precipitation Wind Pressure Humidity
    00:00 +13°C° 1.4 mm 2 mps 739 mmHg 84%
    01:00 +13°C° 1.4 mm 2 mps 739 mmHg 85%
    02:00 +13°C° 0.4 mm 2 mps 740 mmHg 86%
    03:00 +12°C° 0.4 mm 2 mps 740 mmHg 87%
    04:00 +12°C° 0.4 mm 2 mps 740 mmHg 88%
    05:00 +12°C° 0 mm 2 mps 740 mmHg 86%
    06:00 +12°C° 0 mm 1 mps 740 mmHg 85%
    07:00 +13°C° 0 mm 1 mps 741 mmHg 83%
    08:00 +13°C° 0 mm 2 mps 741 mmHg 78%
    09:00 +14°C° 0 mm 2 mps 741 mmHg 73%
    10:00 +15°C° 0 mm 2 mps 741 mmHg 68%
    11:00 +16°C° 0 mm 3 mps 741 mmHg 66%
    12:00 +16°C° 0 mm 3 mps 741 mmHg 64%
    13:00 +17°C° 0 mm 3 mps 741 mmHg 62%
    14:00 +17°C° 0 mm 3 mps 741 mmHg 61%
    15:00 +17°C° 0 mm 2 mps 741 mmHg 61%
    16:00 +17°C° 0 mm 2 mps 740 mmHg 60%
    17:00 +17°C° 0 mm 2 mps 741 mmHg 61%
    18:00 +17°C° 0 mm 2 mps 741 mmHg 62%
    19:00 +18°C° 0 mm 1 mps 741 mmHg 63%
    20:00 +16°C° 0 mm 1 mps 741 mmHg 64%
    21:00 +16°C° 0 mm 2 mps 741 mmHg 65%
    22:00 +16°C° 0 mm 2 mps 741 mmHg 66%
    23:00 +15°C° 0 mm 2 mps 741 mmHg 67%

    22 April, Monday

    Time Temperature Precipitation Wind Pressure Humidity
    00:00 +15°C° 0 mm 2 mps 741 mmHg 67%
    01:00 +15°C° 0 mm 2 mps 741 mmHg 67%
    02:00 +15°C° 0 mm 2 mps 740 mmHg 67%
    03:00 +14°C° 0 mm 2 mps 740 mmHg 68%
    04:00 +14°C° 0 mm 2 mps 740 mmHg 68%
    05:00 +15°C° 0 mm 2 mps 740 mmHg 66%
    06:00 +14°C° 0 mm 3 mps 740 mmHg 64%
    07:00 +14°C° 0 mm 3 mps 740 mmHg 62%
    08:00 +16°C° 0 mm 3 mps 740 mmHg 60%
    09:00 +17°C° 0 mm 4 mps 740 mmHg 58%
    10:00 +18°C° 0 mm 4 mps 740 mmHg 56%
    11:00 +18°C° 0 mm 4 mps 740 mmHg 55%
    12:00 +19°C° 0 mm 3 mps 740 mmHg 55%
    13:00 +19°C° 0 mm 3 mps 740 mmHg 54%
    14:00 +19°C° 0.1 mm 3 mps 739 mmHg 54%
    15:00 +18°C° 0.1 mm 3 mps 739 mmHg 55%
    16:00 +18°C° 0.1 mm 3 mps 739 mmHg 55%
    17:00 +18°C° 0 mm 3 mps 739 mmHg 56%
    18:00 +17°C° 0 mm 3 mps 740 mmHg 56%
    19:00 +17°C° 0 mm 3 mps 740 mmHg 56%
    20:00 +17°C° 0 mm 3 mps 740 mmHg 58%
    21:00 +16°C° 0 mm 3 mps 740 mmHg 59%
    22:00 +15°C° 0 mm 4 mps 740 mmHg 60%
    23:00 +14°C° 0 mm 4 mps 740 mmHg 61%

    23 April, Tuesday

    Time Temperature Precipitation Wind Pressure Humidity
    00:00 +14°C° 0 mm 4 mps 739 mmHg 62%
    01:00 +14°C° 0 mm 4 mps 738 mmHg 63%
    02:00 +13°C° 0 mm 4 mps 738 mmHg 63%
    03:00 +13°C° 0 mm 4 mps 738 mmHg 64%
    04:00 +13°C° 0 mm 4 mps 737 mmHg 64%
    05:00 +13°C° 0 mm 4 mps 737 mmHg 61%
    06:00 +14°C° 0 mm 4 mps 737 mmHg 59%
    07:00 +14°C° 0 mm 4 mps 737 mmHg 57%
    08:00 +16°C° 0 mm 5 mps 737 mmHg 55%
    09:00 +17°C° 0 mm 5 mps 737 mmHg 52%
    10:00 +19°C° 0 mm 6 mps 736 mmHg 49%
    11:00 +20°C° 0 mm 6 mps 736 mmHg 48%
    12:00 +21°C° 0 mm 5 mps 736 mmHg 48%
    13:00 +22°C° 0 mm 5 mps 736 mmHg 47%
    14:00 +20°C° 0.6 mm 6 mps 736 mmHg 53%
    15:00 +18°C° 0.6 mm 7 mps 736 mmHg 59%
    16:00 +16°C° 0.6 mm 8 mps 736 mmHg 64%
    17:00 +15°C° 2 mm 8 mps 736 mmHg 68%
    18:00 +13°C° 2 mm 8 mps 737 mmHg 72%
    19:00 +11°C° 2 mm 8 mps 738 mmHg 77%
    20:00 +11°C° 2.2 mm 6 mps 738 mmHg 78%
    21:00 +11°C° 2.2 mm 4 mps 739 mmHg 80%
    22:00 +10°C° 2.2 mm 3 mps 740 mmHg 82%
    23:00 +10°C° 2.1 mm 3 mps 740 mmHg 83%

    24 April, Wednesday

    Time Temperature Precipitation Wind Pressure Humidity
    00:00 +10°C° 2.1 mm 3 mps 740 mmHg 85%
    01:00 +10°C° 2.1 mm 3 mps 740 mmHg 86%
    02:00 +10°C° 0.9 mm 4 mps 740 mmHg 86%
    03:00 +8°C° 0.9 mm 4 mps 740 mmHg 85%
    04:00 +8°C° 0.9 mm 5 mps 741 mmHg 85%
    05:00 +8°C° 0.4 mm 5 mps 741 mmHg 81%
    06:00 +8°C° 0.4 mm 5 mps 742 mmHg 77%
    07:00 +9°C° 0.4 mm 5 mps 742 mmHg 73%
    08:00 +10°C° 0.1 mm 4 mps 742 mmHg 72%
    09:00 +11°C° 0.1 mm 4 mps 743 mmHg 70%
    10:00 +11°C° 0.1 mm 4 mps 743 mmHg 68%
    11:00 +12°C° 0.2 mm 4 mps 743 mmHg 67%
    12:00 +12°C° 0.2 mm 5 mps 743 mmHg 66%
    13:00 +13°C° 0.2 mm 5 mps 743 mmHg 65%
    14:00 +11°C° 0.9 mm 6 mps 743 mmHg 67%
    15:00 +10°C° 0.9 mm 7 mps 743 mmHg 68%
    16:00 +10°C° 0.9 mm 7 mps 744 mmHg 70%
    17:00 +9°C° 0.3 mm 7 mps 744 mmHg 71%
    18:00 +9°C° 0.3 mm 6 mps 745 mmHg 72%
    19:00 +8°C° 0.3 mm 6 mps 746 mmHg 72%
    20:00 +8°C° 0.2 mm 5 mps 746 mmHg 72%
    21:00 +8°C° 0.2 mm 4 mps 747 mmHg 72%
    22:00 +9°C° 0.2 mm 3 mps 747 mmHg 72%
    23:00 +8°C° 0.1 mm 2 mps 747 mmHg 72%
    Show more